CZ-4 DEB, 26444

Orbit data source: Space-Track

CZ-4 DEB, 26444 is space debris in SSO originally from a launch on Thu, 14 Oct 1999 UTC launched from the Taiyaun Space Center, China (TSC). Debris objects in space refer to the collection of defunct objects orbiting the Earth. Examples of debris include non-operational satellites, rocket bodies, and fragments generated from explosions, collisions, or faulty payload assembly.

Loading next visibility...
Identifier
26444, 1999-057KR
Orbit
SSO
Country
Flag of CNCN / PRC
Related business
Manufacturer
Unknown
Mission
Spacecraft
Bus & Motor
Unknown
Mass
Unknown
Launch date (UTC)
1999-10-14 (26 years ago)
Launch vehicle
Unknown
Launch site
Taiyaun Space Center, China (TSC)
Object type
Payload
Rocket body
Debris
Shape & HBR
Unknown shape, 0.1 m
Radar Cross Section
Small (<0.1 m²)

Expand to show TLE details & history
Last TLE update: 10 hours ago

TLE from 10 hours ago
0 CZ-4 DEB
1 26444U 99057KR  26036.69579959  .00004571  00000-0  77952-3 0  9996
2 26444  98.5314 115.7750 0069187 111.3149  48.8820 14.67931942369766
Epoch: 2026-02-05T16:41Z
TLE epoch observation values (Epoch: 2026-02-05T16:41:57.084Z)
Latitude
18.98004°
Longitude
-87.61577°
Altitude
638.292 km
Speed
7.558 km/s
True Right ascension
19h 54m 51s
True Declination
18° 52' 22"
Sunlit
Object was in daylight at epoch
Visualization orbit readout
Latitude
Unknown
Longitude
Unknown
Altitude
Unknown
Speed
Unknown
Apparent Right ascension
Unknown
Apparent Declination
Unknown
Sunlit
N/A
Visualization observer readout
Local Sidereal Time
04:40:03
Azimuth
Unknown
Elevation
Unknown
Doppler factor
Unknown
Orbital elements
Apogee altitude
713.492 km
Perigee altitude
616.036 km
Semi-major axis
7,042.901 km
Eccentricity
0.00692
Inclination
98.5314°
RAAN
115.775°
Arg. of periapsis
111.3149°
True anomaly
49.48268°
Mean anomaly
48.882°
Eccentric anomaly
49.182°
Mean motion
3.67211 °/min
Orbital period
98.04 mins
BSTAR
0.00077952
Loading maneuver chart data...
Computing Atmospheric mass density...
Loading historical data...
Loading historical data...
Loading historical data...
Loading historical data...
Loading historical data...
Loading historical data...
Loading historical data...

Documentation

Showing up to 5 results
|